[Date Prev][Date Next][Thread Prev][Thread Next] - [Date Index][Thread Index][Author Index]

2 Line ISS Keps 4-24



ISS
1 25544U 98067A   02114.43797116  .00041047  00000-0  54213-3 0  3466
2 25544  51.6382 323.0262 0006449   2.9148  63.7015 15.57925739195642


----
Via the sarex mailing list at AMSAT.ORG courtesy of AMSAT-NA.
To unsubscribe, send "unsubscribe sarex" to Majordomo@amsat.org



AMSAT Top AMSAT Home